Find Kosmos-712

NORAD ID: 7679 Int'l Des: 1975-016 Owner: GUKOSR Country: SU operational
LEOCIRCULAR

实时位置

正在加载3D地球...

关于 Kosmos-712

正在加载描述...

即将过境

Passes for default location (London). Set your location on the main map for personalized predictions.

高度历史

Loading altitude history...

两行轨道根数

1 7679U 75016B 26137.80047551 -.00000004 00000-0 78788-4 0 9994
2 7679 74.0013 163.0120 0050689 319.3991 152.2748 12.53465106343442
Epoch: May 17, 2026 • Age: 8 hours

当前状态

高度 1478.4 km
速度 7.11 km/s
星下点 -11.60°S, 60.56°E
类型 other

Most Searched